Wind_Speed
15 15 16 16 17 17 17 17 17 17 17 17 16 16 16 16 16 16 16 16 16 17 17 18 19 20 20 20 21 21 22 22 22 22 23 24 24 24 23 23 23 24 25
16 16 16 17 18 18 18 18 18 18 18 18 18 17 17 17 18 18 18 18 18 18 19 20 20 20 21 22 22 23 23 24 24 23 24 26 25 25 25 24 25 25 26
17 17 17 18 18 18 19 19 19 19 18 19 19 19 19 19 19 19 19 19 20 20 20 21 21 21 22 23 24 24 25 25 25 25 26 26 26 26 25 26 27 26 26
18 18 19 19 19 20 20 20 20 20 20 20 20 21 21 21 21 21 21 21 21 21 21 22 22 22 23 24 25 25 26 26 26 26 27 27 27 27 28 27 27 27 27
19 20 20 20 20 21 21 22 22 22 21 21 21 22 22 22 22 21 21 22 22 22 22 23 24 24 24 25 26 26 26 26 26 26 26 27 28 27 27 27 27 27 27
20 20 21 22 22 22 22 22 23 22 22 22 22 22 23 23 22 22 22 22 22 22 23 23 24 25 25 26 27 27 27 27 27 27 27 27 27 27 27 27 27 27 28
21 21 22 23 23 23 23 23 23 23 23 23 23 23 23 23 23 23 23 23 23 23 23 23 24 25 26 26 27 28 27 27 27 27 27 27 28 27 27 27 26 26 25
23 23 23 23 23 23 24 24 24 24 24 24 23 24 24 24 24 24 24 24 23 23 24 24 25 25 26 26 26 26 26 26 26 26 26 27 27 26 26 26 26 26 25
24 24 24 24 24 24 24 24 24 24 24 24 24 25 25 26 26 25 25 23 24 24 25 25 26 26 26 26 26 26 26 26 26 26 26 26 26 25 25 25 26 26 25
24 24 24 24 25 25 25 25 25 25 24 25 25 25 26 26 25 25 25 24 24 25 26 26 27 27 27 27 27 27 27 27 26 26 25 25 25 25 25 25 25 25 26
24 25 25 25 25 26 25 25 25 25 25 25 25 26 26 26 25 25 25 25 25 25 26 26 27 27 27 27 27 26 26 26 26 25 25 25 25 25 25 26 26 25 25
25 26 26 26 26 26 25 25 25 25 25 25 26 26 26 25 25 25 25 25 25 25 26 26 26 27 26 26 26 26 26 26 25 25 25 25 25 25 24 25 25 25 25
26 26 26 26 26 26 25 25 25 25 25 25 26 26 26 25 25 25 25 25 24 25 24 24 25 25 25 25 25 25 25 25 24 24 24 24 24 24 24 24 23 23 24
26 26 26 26 25 25 25 24 24 25 25 25 26 26 25 25 25 25 24 24 23 23 23 24 25 25 25 26 25 24 24 23 23 23 23 23 23 23 24 24 24 23 23
26 26 26 26 26 25 25 25 25 25 24 24 24 24 24 25 25 24 24 23 24 24 25 25 26 27 26 25 24 24 23 23 22 22 22 23 23 24 24 24 24 24 24
27 27 27 27 26 26 26 25 24 24 25 25 25 24 24 25 25 25 25 25 25 25 26 26 26 26 25 24 23 23 22 22 22 22 22 23 23 23 23 23 23 24 24
27 28 28 27 27 26 26 25 25 24 24 24 24 25 25 25 26 26 26 26 26 26 26 26 26 25 25 24 23 23 22 22 23 23 23 22 22 22 22 22 22 23 23
28 28 28 28 27 27 26 25 24 24 24 25 25 25 26 26 26 27 27 27 27 26 26 25 25 25 24 24 23 23 23 22 22 22 21 20 20 20 20 20 21 22 23
27 27 27 26 26 26 26 25 25 25 25 25 26 26 26 26 26 26 26 26 25 25 25 24 24 24 24 24 24 24 23 23 22 22 21 20 20 20 20 20 21 22 22
28 27 27 26 26 26 26 25 24 24 25 25 25 26 26 26 26 26 26 25 25 24 24 23 24 24 24 24 24 23 23 23 23 22 21 21 20 21 21 22 21 21 21
27 27 27 27 26 26 25 25 25 25 25 25 25 26 27 27 27 26 26 25 25 24 24 24 24 24 24 24 23 23 23 23 23 22 22 22 22 22 21 21 21 21 21
28 27 26 25 25 25 25 25 24 24 25 25 25 26 26 26 26 26 25 25 25 24 24 24 24 24 24 23 23 23 23 23 23 23 23 23 22 22 21 21 20 20 20
26 26 26 25 25 25 25 24 24 24 24 25 25 25 26 26 26 25 25 24 24 24 23 24 24 24 24 23 23 23 23 22 23 23 23 22 22 21 20 20 20 19 19
25 25 25 25 25 24 24 24 24 23 24 24 25 25 26 26 26 26 26 25 24 23 23 24 24 24 23 23 23 23 22 22 23 22 22 21 20 19 19 18 18 18 18
25 26 25 25 25 24 24 24 24 24 24 24 24 25 25 26 26 26 26 25 24 23 23 23 23 23 22 23 23 22 22 21 21 21 21 20 19 18 18 18 18 18 18
26 26 26 25 25 25 24 24 24 24 24 24 24 25 25 26 26 26 26 26 25 23 23 23 22 22 22 22 22 21 22 21 21 20 20 20 19 19 19 19 19 19 19
Wind_Direction
322 323 322 322 323 321 319 319 318 319 318 316 313 312 312 312 309 306 306 302 299 294 291 290 289 286 282 280 280 280 279 278 276 276 274 273 273 271 269 267 267 266 263
317 316 316 317 318 318 316 315 315 315 315 315 312 310 310 309 306 305 304 302 299 296 294 292 289 289 286 283 282 282 281 280 278 277 277 275 273 271 269 267 267 266 264
314 314 314 314 315 314 314 313 311 311 311 311 310 308 308 308 306 305 302 303 302 297 295 294 291 288 288 286 284 283 282 281 280 279 278 277 274 271 269 268 266 264 264
312 312 312 311 310 309 310 310 309 309 308 307 308 307 306 307 306 305 302 303 301 298 295 293 292 291 289 288 287 285 284 283 281 281 279 278 277 273 270 268 265 263 263
306 306 307 308 308 308 308 307 307 309 308 308 308 307 307 306 306 306 304 301 300 297 296 294 292 291 290 288 287 286 285 283 282 281 280 279 278 276 271 270 266 264 263
304 303 305 307 307 308 308 307 307 306 306 307 307 308 307 308 308 306 304 302 300 298 296 295 294 292 291 290 288 286 284 282 281 281 281 280 279 277 273 271 268 266 264
310 310 311 311 311 310 310 308 307 306 306 305 306 306 307 308 307 306 303 301 300 298 297 297 296 295 293 291 290 287 284 283 282 282 282 281 280 277 273 270 269 267 266
309 311 312 311 310 310 309 308 308 307 306 305 304 304 305 306 305 303 303 301 300 300 300 299 298 296 295 293 292 289 287 285 283 282 281 280 278 276 274 272 269 268 267
307 309 310 310 310 310 309 308 307 306 306 304 304 304 304 305 305 305 303 301 300 300 301 300 299 297 296 295 293 291 289 287 284 283 283 281 279 277 276 273 270 267 265
304 307 307 307 307 307 308 307 306 305 305 304 304 304 304 304 304 304 303 301 301 301 301 301 299 298 297 296 294 292 291 289 286 284 283 281 279 276 274 273 272 269 266
305 305 305 305 306 306 306 305 305 305 305 305 304 304 304 303 303 303 302 302 301 300 301 302 302 301 300 298 296 295 293 291 288 285 283 281 278 277 275 274 271 268 267
306 306 305 306 306 307 307 305 305 304 303 303 304 304 304 303 303 301 301 302 302 301 301 302 303 302 300 300 299 298 296 294 290 286 282 279 278 276 276 275 274 270 268
307 307 307 306 306 306 307 306 307 306 306 306 306 306 305 304 303 301 301 302 302 303 302 302 305 304 303 303 302 301 299 296 291 286 282 279 278 276 275 274 272 270 268
307 307 306 306 306 306 306 306 306 306 307 306 307 307 307 306 304 303 302 302 303 304 306 306 306 307 306 305 303 301 299 297 292 288 284 281 278 276 275 272 270 269 267
307 308 307 306 304 304 306 306 305 305 306 307 308 307 306 306 306 305 304 305 304 304 305 306 306 305 305 304 303 302 299 297 293 289 285 282 280 276 274 272 270 269 267
306 308 308 306 304 304 304 304 304 305 307 307 307 308 307 307 307 306 306 306 305 304 304 304 304 303 303 302 301 303 301 297 295 292 288 285 282 278 277 275 272 269 267
304 306 308 306 305 305 305 304 304 305 306 307 306 307 307 307 307 306 306 305 305 305 305 304 304 304 303 303 302 302 301 300 298 295 292 288 284 280 278 276 273 270 268
303 305 306 306 305 304 304 303 303 304 305 306 306 306 307 307 307 307 308 307 306 306 306 305 306 305 304 303 302 301 300 300 300 299 295 290 285 283 280 279 277 274 271
302 303 304 305 306 306 305 305 304 304 305 306 306 305 306 306 308 309 309 309 309 308 307 306 306 306 305 305 304 303 301 300 299 298 295 292 289 286 284 281 278 276 274
301 302 301 302 304 305 305 305 304 304 305 306 307 307 307 308 310 311 311 311 311 310 309 307 306 306 305 305 304 303 302 300 298 296 294 292 290 287 285 283 281 277 272
300 301 301 302 302 303 303 303 303 304 305 307 307 307 307 308 310 311 310 310 310 310 309 309 308 307 305 304 304 303 303 301 298 296 294 292 290 288 285 283 282 277 274
299 299 300 302 303 303 303 303 303 304 306 307 308 308 309 310 311 312 311 310 309 309 310 310 310 309 307 306 306 304 302 301 299 297 295 292 290 287 283 281 279 277 275
300 300 301 302 303 304 305 305 304 305 305 307 308 308 309 311 311 312 311 309 309 309 310 310 310 309 307 306 304 304 302 301 301 299 297 294 290 287 283 280 277 274 272
301 301 300 302 302 303 306 306 305 305 306 307 307 309 310 311 312 312 311 309 307 308 308 309 309 309 308 307 304 302 301 302 302 301 298 296 294 290 286 280 275 272 270
299 299 299 300 301 301 302 304 305 305 305 306 307 309 310 311 312 312 311 310 307 307 307 308 308 308 307 307 306 305 303 302 301 300 299 298 296 294 289 283 277 274 272
297 297 297 298 300 300 299 301 304 305 305 307 308 310 311 312 313 312 312 310 308 307 308 308 308 308 307 307 308 307 306 305 305 303 300 298 295 292 288 283 280 276 272
Height
5868 5866 5863 5861 5859 5856 5854 5851 5849 5846 5843 5841 5838 5836 5834 5831 5829 5826 5825 5823 5821 5819 5818 5816 5815 5813 5812 5811 5809 5808 5807 5806 5805 5803 5802 5801 5799 5798 5797 5796 5796 5796 5796
5865 5863 5860 5858 5855 5852 5850 5847 5844 5842 5839 5837 5834 5832 5829 5827 5824 5822 5820 5818 5816 5814 5812 5811 5809 5807 5806 5804 5803 5801 5799 5798 5797 5796 5794 5793 5791 5790 5790 5789 5789 5788 5788
5861 5859 5856 5854 5851 5848 5845 5842 5839 5837 5834 5832 5830 5827 5825 5822 5820 5817 5815 5813 5811 5809 5807 5805 5803 5801 5800 5798 5796 5794 5792 5791 5789 5788 5787 5785 5784 5782 5782 5781 5781 5780 5780
5857 5854 5852 5849 5847 5844 5841 5838 5835 5832 5830 5827 5825 5822 5820 5817 5815 5812 5810 5807 5805 5803 5801 5799 5797 5795 5793 5791 5789 5787 5785 5784 5782 5780 5779 5777 5776 5774 5774 5772 5772 5772 5772
5852 5849 5847 5845 5842 5839 5836 5833 5830 5828 5825 5822 5820 5817 5814 5812 5810 5807 5804 5802 5800 5797 5795 5792 5790 5788 5786 5784 5782 5780 5778 5776 5774 5773 5771 5769 5768 5766 5765 5764 5763 5763 5763
5846 5844 5842 5839 5836 5834 5831 5828 5825 5822 5820 5817 5814 5812 5809 5807 5804 5801 5798 5796 5794 5791 5789 5786 5783 5781 5778 5776 5774 5772 5770 5768 5766 5764 5763 5761 5759 5758 5756 5756 5755 5755 5754
5842 5839 5836 5834 5831 5828 5825 5822 5819 5817 5814 5811 5809 5806 5803 5801 5798 5795 5792 5790 5787 5785 5782 5779 5777 5774 5771 5768 5766 5764 5761 5759 5758 5756 5754 5752 5751 5749 5748 5747 5747 5746 5746
5836 5834 5831 5829 5826 5823 5820 5816 5813 5811 5808 5805 5803 5800 5797 5794 5792 5789 5786 5783 5780 5778 5775 5772 5769 5766 5763 5761 5758 5755 5753 5751 5749 5747 5746 5744 5742 5740 5739 5739 5738 5738 5737
5832 5829 5826 5823 5820 5817 5814 5811 5808 5805 5802 5799 5796 5793 5791 5788 5785 5782 5779 5776 5773 5770 5767 5764 5761 5759 5756 5753 5750 5747 5745 5742 5740 5738 5737 5735 5733 5732 5731 5730 5729 5729 5729
5826 5823 5820 5817 5814 5811 5808 5805 5802 5799 5796 5793 5790 5787 5784 5781 5778 5775 5772 5769 5766 5763 5760 5757 5754 5751 5747 5744 5742 5739 5736 5734 5732 5730 5728 5726 5725 5724 5723 5722 5721 5720 5720
5820 5817 5814 5811 5808 5805 5802 5799 5796 5792 5789 5787 5783 5780 5777 5774 5771 5768 5765 5762 5759 5756 5753 5749 5746 5743 5739 5736 5733 5730 5728 5725 5723 5721 5720 5718 5716 5715 5714 5713 5712 5712 5712
5813 5811 5807 5804 5801 5798 5795 5792 5789 5786 5782 5779 5776 5773 5770 5767 5763 5760 5757 5754 5751 5748 5745 5742 5738 5735 5731 5728 5725 5722 5719 5716 5714 5712 5711 5709 5708 5706 5705 5705 5704 5703 5703
5807 5804 5801 5798 5795 5792 5789 5786 5782 5779 5776 5773 5769 5766 5762 5759 5756 5753 5750 5747 5743 5740 5737 5734 5730 5726 5723 5720 5717 5713 5710 5708 5705 5703 5702 5700 5699 5698 5697 5696 5696 5695 5695
5800 5797 5794 5791 5788 5785 5782 5779 5776 5773 5769 5766 5763 5759 5756 5752 5749 5746 5742 5739 5736 5733 5730 5726 5722 5719 5715 5712 5709 5705 5702 5699 5697 5695 5693 5691 5690 5689 5688 5688 5687 5687 5687
5793 5790 5787 5784 5781 5778 5775 5772 5769 5766 5763 5759 5756 5752 5749 5746 5742 5739 5735 5732 5729 5726 5722 5719 5715 5711 5708 5705 5702 5698 5695 5691 5689 5687 5685 5683 5682 5681 5680 5679 5679 5679 5679
5787 5784 5781 5777 5774 5771 5768 5764 5761 5759 5756 5752 5749 5746 5742 5739 5735 5732 5728 5725 5722 5719 5715 5712 5708 5704 5701 5698 5694 5691 5687 5684 5682 5679 5677 5675 5674 5673 5672 5671 5670 5670 5670
5780 5777 5774 5770 5767 5764 5761 5758 5755 5752 5749 5746 5742 5739 5736 5732 5729 5725 5721 5718 5714 5711 5708 5704 5701 5697 5694 5691 5687 5684 5681 5678 5675 5672 5670 5668 5666 5665 5664 5663 5663 5662 5662
5773 5770 5766 5763 5760 5757 5754 5751 5748 5745 5742 5739 5735 5732 5729 5725 5722 5718 5714 5711 5707 5703 5700 5697 5693 5690 5687 5683 5680 5677 5674 5671 5668 5665 5663 5661 5659 5658 5657 5656 5655 5655 5655
5765 5762 5759 5756 5753 5749 5746 5743 5741 5738 5735 5732 5728 5725 5722 5718 5714 5710 5707 5703 5699 5696 5692 5689 5686 5683 5680 5676 5673 5670 5667 5664 5662 5659 5657 5655 5653 5651 5650 5649 5648 5648 5647
5758 5755 5752 5749 5745 5742 5739 5736 5733 5731 5728 5724 5721 5718 5715 5711 5707 5703 5700 5696 5693 5689 5686 5682 5679 5676 5673 5670 5667 5663 5660 5658 5655 5652 5650 5648 5646 5645 5643 5642 5641 5641 5640
5750 5747 5744 5741 5738 5735 5732 5729 5726 5723 5720 5717 5714 5711 5707 5704 5700 5696 5693 5689 5686 5682 5679 5676 5673 5669 5666 5663 5660 5656 5653 5651 5648 5646 5643 5641 5639 5637 5636 5635 5634 5633 5633
5743 5740 5737 5734 5731 5728 5725 5722 5719 5716 5713 5710 5707 5704 5700 5697 5693 5690 5686 5682 5679 5676 5673 5669 5666 5663 5659 5656 5653 5649 5646 5644 5641 5638 5636 5633 5631 5629 5628 5627 5626 5625 5625
5735 5733 5730 5727 5724 5721 5718 5715 5712 5709 5706 5703 5700 5697 5693 5690 5687 5683 5679 5676 5673 5669 5666 5663 5660 5656 5652 5649 5646 5642 5639 5637 5634 5631 5628 5626 5623 5621 5620 5619 5618 5618 5618
5728 5726 5723 5720 5717 5714 5712 5709 5705 5703 5700 5697 5694 5690 5687 5683 5680 5676 5673 5669 5666 5663 5659 5656 5653 5649 5646 5642 5639 5636 5632 5629 5626 5623 5621 5618 5616 5614 5613 5612 5611 5611 5611
5721 5718 5716 5713 5710 5708 5705 5702 5699 5696 5693 5690 5687 5684 5680 5676 5673 5669 5665 5662 5659 5656 5652 5649 5646 5642 5639 5636 5632 5629 5625 5622 5619 5617 5614 5612 5610 5608 5606 5605 5605 5605 5604
5713 5711 5708 5706 5703 5701 5698 5696 5693 5689 5686 5683 5680 5677 5673 5670 5666 5662 5658 5655 5651 5648 5645 5642 5639 5636 5632 5629 5626 5622 5619 5616 5613 5610 5607 5605 5603 5602 5600 5599 5598 5598 5598